Change the Weather History Date:

Sunday, December 29, 2013

  Actual Average Record
Temperature  
Mean Temperature 63 °F 51 °F  
Max Temperature 73 °F 63 °F 77 °F (2007)
Min Temperature 53 °F 39 °F 26 °F (2010)
Degree Days  
Heating Degree Days 2 14  
Month to date heating degree days 177 353  
Since 1 July heating degree days 343 584  
Growing Degree Days 13 (Base 50)    
Moisture  
Dew Point 61 °F    
Average Humidity 74    
Maximum Humidity 90    
Minimum Humidity 57    
Precipitation  
Precipitation 1.07 in 0.07 in 1.07 in (2013)
Month to date precipitation 4.54 3.02  
Year to date precipitation 45.88 50.45  
Sea Level Pressure  
Sea Level Pressure 29.95 in    
Wind  
Wind Speed 6 mph (South)    
Max Wind Speed 18 mph    
Max Gust Speed 26 mph    
Visibility 8 miles    
Events Rain , Thunderstorm    
T = Trace of Precipitation, MM = Missing Value Source: NWS Daily Summary

Daily Weather History Graph

Daily Weather History Graph

Search for Another Location

Airport or City:

Trip Planner

Search our weather history database for the weather conditions in past years. The results will help you decide how hot, cold, wet, or windy it might be!

Date:

Astronomy

Dec. 29, 2013 Rise Set
Actual Time 7:30 AM EST 5:40 PM EST
Civil Twilight 7:03 AM EST 6:07 PM EST
Nautical Twilight 6:33 AM EST 6:37 PM EST
Astronomical Twilight 6:03 AM EST 7:06 PM EST
Moon 4:18 AM EST (12/29) 3:13 PM EST (12/29)
Length of Visible Light 11h 03m
Length of Day
10h 10m
Waning Crescent, 11% of the Moon is Illuminated
Dec 29
Waning Crescent
Jan 1
New
Jan 7
First Quarter
Jan 15
Full
Jan 24
Last Quarter

Hourly Weather History & Observations

Time (EST) Temp. Dew Point Humidity Pressure Visibility Wind Dir Wind Speed Gust Speed Precip Events Conditions
12:16 AM 69.8 °F 64.4 °F 83% 29.96 in 10.0 mi SSE 8.1 mph - N/A   Overcast
12:51 AM 69.8 °F 64.4 °F 83% 29.93 in 10.0 mi SSE 9.2 mph - 0.02 in Rain Light Rain
12:53 AM 69.1 °F 64.9 °F 87% 29.95 in 10.0 mi SE 10.4 mph - 0.02 in Rain Light Rain
1:53 AM 70.0 °F 64.9 °F 84% 29.91 in 10.0 mi SSE 13.8 mph - 0.02 in   Overcast
2:53 AM 70.0 °F 66.0 °F 87% 29.90 in 10.0 mi SSE 16.1 mph 21.9 mph 0.00 in Rain Light Rain
2:55 AM 69.8 °F 66.2 °F 88% 29.88 in 10.0 mi South 15.0 mph 21.9 mph 0.00 in Rain Light Rain
3:50 AM 71.6 °F 66.2 °F 83% 29.88 in 5.0 mi South 12.7 mph 21.9 mph 0.10 in Rain Rain
3:53 AM 71.1 °F 66.9 °F 87% 29.90 in 5.0 mi South 16.1 mph 25.3 mph 0.12 in Rain Rain
4:00 AM 71.6 °F 66.2 °F 83% 29.88 in 5.0 mi South 15.0 mph 25.3 mph 0.03 in Rain , Thunderstorm Heavy Rain
4:06 AM 71.6 °F 66.2 °F 83% 29.88 in 2.5 mi South 13.8 mph - 0.10 in Rain , Thunderstorm Heavy Rain
4:12 AM 71.6 °F 66.2 °F 83% 29.88 in 3.0 mi South 9.2 mph - 0.13 in Rain , Thunderstorm Heavy Rain
4:17 AM 71.6 °F 66.2 °F 83% 29.88 in 2.5 mi South 13.8 mph 18.4 mph 0.19 in Rain Heavy Rain
4:20 AM 71.6 °F 66.2 °F 83% 29.88 in 1.5 mi South 13.8 mph 20.7 mph 0.27 in Rain Heavy Rain
4:27 AM 71.6 °F 66.2 °F 83% 29.89 in 1.8 mi SSW 8.1 mph 21.9 mph 0.37 in Rain Heavy Rain
4:32 AM 71.6 °F 66.2 °F 83% 29.88 in 3.0 mi South 10.4 mph 21.9 mph 0.40 in Rain Heavy Rain
4:53 AM 72.0 °F 66.9 °F 84% 29.90 in 2.5 mi SSW 11.5 mph 23.0 mph 0.55 in Rain Heavy Rain
5:00 AM 71.6 °F 68.0 °F 88% 29.88 in 2.5 mi SSW 10.4 mph 20.7 mph 0.05 in Rain Heavy Rain
5:04 AM 71.6 °F 66.2 °F 83% 29.89 in 2.5 mi SSW 13.8 mph 20.7 mph 0.08 in Rain Heavy Rain
5:19 AM 69.8 °F 66.2 °F 88% 29.89 in 4.0 mi SSW 8.1 mph 17.3 mph 0.16 in Rain Heavy Rain
5:53 AM 70.0 °F 66.0 °F 87% 29.91 in 4.0 mi SSW 8.1 mph - 0.33 in Rain Heavy Rain
6:26 AM 69.8 °F 66.2 °F 88% 29.90 in 10.0 mi South 9.2 mph - 0.02 in   Overcast
6:33 AM 69.8 °F 66.2 °F 88% 29.90 in 10.0 mi SSW 8.1 mph 16.1 mph 0.02 in   Overcast
6:53 AM 70.0 °F 66.0 °F 87% 29.93 in 10.0 mi Variable 6.9 mph - 0.02 in Rain Light Rain
7:02 AM 69.8 °F 66.2 °F 88% 29.92 in 10.0 mi Variable 4.6 mph - 0.00 in   Overcast
7:16 AM 69.8 °F 64.4 °F 83% 29.92 in 10.0 mi SSW 4.6 mph - 0.00 in   Overcast
7:53 AM 69.1 °F 64.9 °F 87% 29.95 in 10.0 mi SW 3.5 mph - 0.00 in   Overcast
8:18 AM 69.8 °F 64.4 °F 83% 29.93 in 10.0 mi Calm Calm - N/A   Mostly Cloudy
8:53 AM 70.0 °F 64.9 °F 84% 29.96 in 10.0 mi SSW 3.5 mph - N/A   Mostly Cloudy
9:01 AM 69.8 °F 64.4 °F 83% 29.94 in 10.0 mi Calm Calm - N/A   Overcast
9:53 AM 70.0 °F 64.9 °F 84% 30.01 in 10.0 mi Variable 4.6 mph - N/A   Overcast
9:56 AM 69.8 °F 64.4 °F 83% 29.98 in 10.0 mi Variable 4.6 mph - N/A   Overcast
10:30 AM 69.8 °F 60.8 °F 73% 29.99 in 10.0 mi Variable 4.6 mph - N/A   Overcast
10:53 AM 70.0 °F 60.1 °F 71% 30.02 in 10.0 mi Variable 6.9 mph - 0.01 in   Overcast
11:15 AM 69.8 °F 59.0 °F 68% 29.99 in 10.0 mi Variable 4.6 mph - N/A   Overcast
11:25 AM 69.8 °F 57.2 °F 64% 29.99 in 10.0 mi Variable 6.9 mph - N/A   Overcast
11:53 AM 68.0 °F 57.0 °F 68% 30.01 in 10.0 mi Calm Calm - N/A   Overcast
12:53 PM 70.0 °F 57.0 °F 63% 29.98 in 10.0 mi Variable 5.8 mph - N/A   Overcast
1:53 PM 72.0 °F 57.0 °F 59% 29.96 in 10.0 mi Variable 6.9 mph - N/A   Partly Cloudy
2:53 PM 72.0 °F 55.9 °F 57% 29.96 in 10.0 mi Variable 3.5 mph - N/A   Clear
3:53 PM 71.1 °F 55.0 °F 57% 29.95 in 10.0 mi Calm Calm - N/A   Clear
4:53 PM 68.0 °F 55.0 °F 63% 29.97 in 10.0 mi Variable 4.6 mph - N/A   Clear
5:53 PM 63.0 °F 54.0 °F 72% 29.99 in 10.0 mi Variable 3.5 mph - N/A   Clear
6:53 PM 60.1 °F 53.1 °F 78% 30.01 in 10.0 mi Calm Calm - N/A   Clear
7:53 PM 59.0 °F 51.1 °F 75% 30.04 in 10.0 mi Calm Calm - N/A   Clear
8:53 PM 55.9 °F 50.0 °F 80% 30.05 in 10.0 mi NW 4.6 mph - N/A   Clear
9:38 PM 55.4 °F 48.2 °F 77% 30.04 in 10.0 mi Variable 5.8 mph - N/A   Mostly Cloudy
9:53 PM 55.0 °F 50.0 °F 83% 30.07 in 10.0 mi Variable 4.6 mph - N/A   Overcast
10:53 PM 54.0 °F 46.9 °F 77% 30.10 in 10.0 mi Calm Calm - N/A   Overcast
11:53 PM 53.1 °F 45.0 °F 74% 30.11 in 10.0 mi Variable 3.5 mph - N/A   Overcast